• Join FlightAware (Why Join?)
  • Login
  • US Flag GB Flag 
22:01 EST


 

Airport Tracker/Info


-or-


 

Live Flight TrackerFlight Track Log ✈ CTL13 ✈ 05-Apr-2013 ✈ KEYE - KMDW

Flight Track Log - Related Links

Times and Time Zones

All times are in EDT time to prevent confusion due to time zone crossing. See the CTL13 flight status page for this flight to view local times or setup timezone preferences in your user account.

Time Position Orientation Groundspeed Altitude Reporting Facility
EDT Latitude Longitude Course Direction KTS MPH feet Rate Location/Type
20:50 39.8788 -86.3452 321° Northwest  Level FlightAware Approximate
20:54 40.2089 -86.4903 320° Northwest 159 183 4,000  Level Indianapolis Center
20:55 40.2181 -86.5094 302° West 162 186 4,000  Level Chicago Center
20:55 40.2425 -86.5469 311° West 163 188 4,000  Level Chicago Center
20:57 40.0940 -86.5772 323° Northwest  Level FlightAware Approximate
20:57 40.2711 -86.5953 308° West 165 190 4,000  Level Chicago Center
20:58 40.1279 -86.6112 323° Northwest  Level FlightAware Approximate
20:58 40.3047 -86.6508 308° West 165 190 4,000  Level Chicago Center
20:59 40.1618 -86.6451 323° Northwest  Level FlightAware Approximate
20:59 40.3344 -86.6964 311° West 166 191 4,000  Level Chicago Center
21:00 40.1953 -86.6796 320° Northwest  Level FlightAware Approximate
21:00 40.3581 -86.7358 308° West 163 188 4,000  Level Chicago Center
21:01 40.3867 -86.7847 308° West 166 191 4,000  Level Chicago Center
21:02 40.4200 -86.8417 308° West 166 191 4,000  Level Chicago Center
21:03 40.4492 -86.8928 307° West 171 197 4,000  Level Chicago Center
21:04 40.4789 -86.9375 311° West 165 190 4,000  Level Chicago Center
21:05 40.5089 -86.9892 307° West 166 191 4,000  Level Chicago Center
21:06 40.5361 -87.0325 310° West 164 189 4,000  Level Chicago Center
21:07 40.5681 -87.0806 311° West 163 188 4,000  Level Chicago Center
21:08 40.6139 -87.1028 340° North 166 191 4,000  Level Chicago Center
21:09 40.6572 -87.1222 341° North 166 191 4,000  Level Chicago Center
21:10 40.7000 -87.1439 339° North 165 190 4,000  Level Chicago Center
21:11 40.7414 -87.1669 337° Northwest 165 190 4,000  Level Chicago Center
21:12 40.7833 -87.1889 338° Northwest 164 189 4,000  Level Chicago Center
21:13 40.8317 -87.2147 338° Northwest 160 184 4,000  Level Chicago Center
21:14 40.8725 -87.2361 338° Northwest 159 183 4,000  Level Chicago Center
21:15 40.9144 -87.2578 339° North 160 184 4,000  Level Chicago Center
21:16 40.9550 -87.2794 338° Northwest 160 184 4,000  Level Chicago Center
21:17 40.9953 -87.3019 337° Northwest 158 182 4,000  Level Chicago Center
21:18 41.0356 -87.3228 339° North 158 182 4,000  Level Chicago Center
21:19 41.0856 -87.3481 339° North 159 183 4,000  Level Chicago Center
21:20 41.1208 -87.3822 324° Northwest 160 184 4,000  Level Chicago Center
21:21 41.1542 -87.4217 318° Northwest 160 184 4,000  Level Chicago Center
21:22 41.1894 -87.4556 324° Northwest 159 183 4,000  Level Chicago Center
21:23 41.2242 -87.4917 322° Northwest 159 183 4,000  Level Chicago Center
21:24 41.2661 -87.5353 322° Northwest 160 184 4,000  Level Chicago Center
21:25 41.3011 -87.5692 324° Northwest 158 182 4,000  Level Chicago Center
21:26 41.3364 -87.6072 321° Northwest 161 185 4,000  Level Chicago Center
21:27 41.3714 -87.6436 322° Northwest 161 185 4,000  Level Chicago Center
21:28 41.4078 -87.6811 322° Northwest 164 189 4,000  Level Chicago Center
21:30 41.4442 -87.7167 324° Northwest 163 188 4,000 -240 Level Chicago Center
21:31 41.4881 -87.7628 322° Northwest 167 192 3,600 -420 Descending Chicago Center
21:32 41.5267 -87.8053 321° Northwest 174 200 3,200 -300 Descending Chicago Center
21:33 41.5558 -87.8597 306° West 179 206 3,000 -300 Descending Chicago Center
21:34 41.5842 -87.9111 306° West 176 203 2,700 -300 Descending Chicago Center
21:35 41.6206 -87.9469 324° Northwest 179 206 2,400 -120 Descending Chicago Center
21:36 41.6614 -87.9067 36° Northeast 160 184 2,500 -60 Climbing Chicago Center
21:37 41.6933 -87.8700 41° Northeast 156 180 2,300 -180 Descending Chicago Center
21:37 41.7000 -87.8500 66° East 144 166 2,300 -180 Level Chicago TRACON
21:38 41.7333 -87.8167 37° Northeast 121 139 2,100 -420 Descending Chicago TRACON
21:39 41.7500 -87.8000 37° Northeast 109 125 1,500 -600 Descending Chicago TRACON
21:40 41.7667 -87.7667 56° Northeast 102 117 900 -600 Descending Chicago TRACON